weather.gov     
National Weather Service

Regional Weather Roundup
NWS Homepage
This page is being discontinued on March 12, 2014.
The same data is available at this site. Please update your bookmarks.
Thank you, and we apologize for the inconvenience.
Please send an email to SR-SRH.Webmaster@noaa.gov with any concerns.


Current Version
Previous Version:    01  02  03  04  05  06  07  08  09  10  11  12  13  14  15  16  17  18  19  20  21  22  23  24  25  26  
[Printable]
437
ASUS41 KOKX 311005
RWROKX

REGIONAL WEATHER ROUNDUP
NATIONAL WEATHER SERVICE NEW YORK NY
600 AM EDT FRI OCT 31 2014

NOTE: "FAIR" INDICATES FEW OR NO CLOUDS BELOW 12,000 FEET WITH NO
SIGNIFICANT WEATHER AND/OR OBSTRUCTIONS TO VISIBILITY.

NYZ071-072-176-178-NJZ106-104-311100-
NEW YORK CITY METRO AREA


CITY           SKY/WX    TMP DP  RH WIND       PRES   REMARKS
CENTRAL PARK   MOCLDY    46  32  58 VRB7      30.04R
LAGUARDIA APRT MOCLDY    45  33  63 N6        30.01R
KENNEDY INTL   MOCLDY    47  35  63 N7        30.02R
NEWARK/LIBERTY MOCLDY    43  36  76 N6        30.02R
BRNX BOT. GARD   N/A     41  32  70 E2        30.02S
TETERBORO      MOCLDY    40  34  79 N3        30.01R
$$

NYZ177-179-078>081-311100-
LONG ISLAND NEW YORK

CITY           SKY/WX    TMP DP  RH WIND       PRES   REMARKS
FARMINGDALE    CLOUDY    46  36  68 N8        30.00R
ISLIP          MOCLDY    44  36  73 N6        29.98S
SHIRLEY        MOCLDY    43  36  76 N5        30.01R
WESTHAMPTON    CLEAR     32  30  92 CALM      30.02R
MONTAUK POINT    N/A     50  42  74 N8        30.01R
$$

NYZ052-065-067-311100-
HUDSON VALLEY

CITY           SKY/WX    TMP DP  RH WIND       PRES   REMARKS
WHITE PLAINS   PTCLDY    41  31  67 N7        30.00R
NEWBURGH       NOT AVBL
MONTGOMERY     PTCLDY    30  28  92 CALM      30.02S
POUGHKEEPSIE   CLEAR     34  31  88 CALM      30.02S
ALBANY         PTCLDY    34  31  88 CALM      30.04S
$$

NJZ001-105-106-008-010-013-015-019>022-104-311100-
NEW JERSEY

CITY           SKY/WX    TMP DP  RH WIND       PRES   REMARKS
NEWARK/LIBERTY MOCLDY    43  36  76 N6        30.02R
TETERBORO      MOCLDY    40  34  79 N3        30.01R
CALDWELL       CLOUDY    35  32  88 CALM      30.02S
MORRISTOWN     CLOUDY    34  32  93 CALM      30.02S
SOMERVILLE     PTCLDY    31  28  89 CALM      30.01S
SUSSEX         CLEAR     29  26  89 CALM      30.03R
ANDOVER          N/A     30  28  92 CALM      30.03R
TRENTON        CLEAR     37  31  78 NW6       30.01S WCI  32
MILLVILLE      CLEAR     34  31  88 CALM      30.01S
ATLANTIC CITY  CLEAR     36  33  89 CALM      30.01R
WRIGHTSTOWN    CLEAR     37  32  82 N6        29.99S WCI  32
TOMS RIVER     MOCLDY    37  34  87 CALM      30.00S
BELMAR         PTCLDY    36  28  75 NW6       30.00S WCI  31
$$

PAZ047>061-062-071-311100-
EASTERN PENNSYLVANIA

CITY           SKY/WX    TMP DP  RH WIND       PRES   REMARKS
PHILADELPHIA   PTCLDY    41  33  73 NW8       30.03R
ALLENTOWN      CLEAR     29  27  92 SW3       30.02S
SCRANTON       CLEAR     33  28  81 E5        30.01S WCI  29
$$

CTZ002-004>006-009-010-012-RIZ004-006-007-MAZ004-011-015-311100-
SOUTHERN NEW ENGLAND
 IN CT

CITY           SKY/WX    TMP DP  RH WIND       PRES   REMARKS
BRADLEY INTL   PTCLDY    34  30  85 CALM      30.02R
HARTFORD       CLEAR     34  33  96 SE8       30.03R WCI  27
DANBURY        MOCLDY    38  29  70 CALM      30.02S
WTRBRY/OXFORD  CLOUDY    41  27  56 NE9       30.02S
BRIDGEPORT     CLOUDY    46  34  62 N10       30.00S
MERIDEN        PTCLDY    33  30  88 CALM      30.02S
NEW HAVEN      MOCLDY    44  33  65 N10       30.00S
CHESTER        FAIR      39  34  81 N5        30.01S
GROTON         CLOUDY    39  36  89 N6        30.00R WCI  35
WILLIMANTIC    PTCLDY    36  33  89 CALM      30.02R

 IN RI

CITY           SKY/WX    TMP DP  RH WIND       PRES   REMARKS
PROVIDENCE     MOCLDY    45  38  76 N5        30.02R
BLOCK ISLAND   CLEAR     48  39  71 NE5       29.99R
WESTERLY       PTCLDY    40  36  86 N3        30.01R

 IN MA

CITY           SKY/WX    TMP DP  RH WIND       PRES   REMARKS
BOSTON         MOCLDY    45  37  73 N5        30.02R
WORCESTER      CLOUDY    40  33  76 NE5       30.00R
WESTFIELD      MOCLDY    32  30  92 CALM      30.02S
PROVINCETOWN   CLOUDY    48  -2  12 NE12      30.01R
NANTUCKET      CLEAR     47  42  83 NE6       29.98R
$$

ANZ330-335-338-340-345-350-353-355-311100-
COASTAL MARINE OBSERVATIONS


STATION/POSITION TIME  SKY/WX   TEMP    WIND        PRES    VSBY  WAVE
                                AIR SEA DIR/SP/G                  HT/PER
                 (UTC)          (F)     (DEG/KT/KT) (MB)    (MI)  (FT/S)
NY HARB ENTRANCE 1000            50 60   20/ 14/ 17 1015.9          2/ 4
4S FIRE IS       1000               62                N/A           2/ 3
20S FIRE ISLAND  1000            53 62   40/ 16/ 19 1014.9          4/ 5
23SW MTP         1000                                 N/A           2/ 4
HUDSON CANYON    1000            56 64  360/  8/ 10 1014.4          2/ 4
EXECUTION ROCKS  1000            47 59  360/  6/ 10   N/A
WESTERN LI SOUND 1000            47      20/ 10/ 12   N/A           1/ 2
CENTRAL LI SOUND 0900            48 61  360/ 16/ 19   N/A           2/ 3
EASTERN LI SOUND 0900            47 61   10/ 14/ 17   N/A
ROBBINS REEF     1000            45     350/ 10/ 12 1015.1
$$


>>>>>>>>>>>>>>>>>>>>>>>>>>>> KEY <<<<<<<<<<<<<<<<<<<<<<<<<<<
>                                                          <
>     SKY/WX - SKY CONDITION/PRESENT WEATHER               <
>     TMP    - TEMPERATURE IN FAHRENHEIT                   <
>     DP     - DEWPOINT IN FAHRENHEIT                      <
>     RH     - RELATIVE HUMIDITY IN PERCENT                <
>     WIND   - DIRECTION AND SPEED IN MPH                  <
>     PRES   - MEAN SEA LEVEL PRESSURE IN INCHES OF HG     <
>     WCI    - WIND CHILL INDEX                            <
>     VSB    - VISIBILITY IN MILES                         <
>     HX     - HEAT INDEX                                  <
>     TC     - TEMPERATURE IN CELSIUS                      <
>     VRB    - VARIABLE WIND DIRECTION                     <
>                                                          <
>>>>>>>>>>>>>>>>>>>>>>>>>>>> KEY <<<<<<<<<<<<<<<<<<<<<<<<<<<






U.S. Dept. of Commerce
NOAA National Weather Service
1325 East West Highway
Silver Spring, MD 20910
E-mail: w-nws.webmaster@noaa.gov
Page last modified: May 16, 2007
NATIONAL WEATHER SERVICE: for Safety, for Work, for Fun - FOR LIFE